(225855) = 2001 XZ172

Discovered at Socorro on 2001-12-14 by LINEAR.

Orbit

Orbit type: Main Belt

Note: WebGL enabled browser required.

epoch2024-03-31.0
epoch JD2460400.5
perihelion date2022-06-28.06405
perihelion JD2459758.56405
argument of perihelion (°)341.75681
ascending node (°)121.14925
inclination (°)3.01825
eccentricity0.1195074
perihelion distance (AU)2.2520410
Tisserand w.r.t. Jupiter3.4
ΔV w.r.t. Earth (km/sec)9.4
semimajor axis (AU)2.5577060
mean anomaly (°)154.67482
mean daily motion (°/day)0.24095060
aphelion distance (AU)2.863
period (years)4.09
P-vector [x]-0.22372483
P-vector [y]0.90065488
P-vector [z]0.37251575
Q-vector [x]-0.97361007
Q-vector [y]-0.22418913
Q-vector [z]-0.04269271
absolute magnitude16.62
phase slope0.15
uncertainty0
referenceMPEC 2024-C115
observations used460
oppositions15
arc length (days)7795
first opposition used2001
last opposition used2023
residual rms (arc-secs)0.73
perturbers coarse indicatorM-v
perturbers precise indicator003Ek
first observation date used2001-12-13.0
last observation date used2023-04-17.0
computer nameMPCLINUX
JD of orbit computation2456760.857820
perihelion JD uncertainty (days)1.3748E-04
argument of perihelion uncertainty (°)1.4405E-04
ascending node uncertainty (°)1.4083E-04
inclination uncertainty (°)4.7290E-06
eccentricity uncertainty 6.9309E-08
perihelion distance uncertainty (AU)1.8694E-07
Minimum Orbit Intersection Distances (in AU)
for orbit epoch: 2460200.5, reference: E2024-CB5
Mercury1.93964
Venus1.53439
Earth1.26825
Mars0.6304
Jupiter2.25593
Saturn6.78316
Uranus15.9978
Neptune27.2724

Observations

469 total observations over interval: 2001 12 13.35871 – 2023 04 17.324522
These data are available for download (format description).

Date (UT) J2000 RA J2000 Dec Magn Location Ref
2001 12 13.35871 07 01 49.92 +20 20 57.7 19.3   644 – Palomar Mountain/NEAT MPS 46944
2001 12 13.42160 07 01 46.89 +20 21 05.7 19.4   644 – Palomar Mountain/NEAT MPS 46944
2001 12 13.48443 07 01 43.92 +20 21 13.4 19.5   644 – Palomar Mountain/NEAT MPS 46944
2001 12 14.37289 07 01 02.58 +20 23 08.8 19.0   704 – Lincoln Laboratory ETS, New Mexico MPS 45337
2001 12 14.38809 07 01 01.81 +20 23 10.7 19.4   704 – Lincoln Laboratory ETS, New Mexico MPS 45337
2001 12 14.40330 07 01 01.08 +20 23 13.5 19.2   704 – Lincoln Laboratory ETS, New Mexico MPS 45337
2001 12 14.41850 07 01 00.35 +20 23 15.2 19.2   704 – Lincoln Laboratory ETS, New Mexico MPS 45337
2001 12 17.37138 06 58 34.22 +20 29 59.5 19.2   704 – Lincoln Laboratory ETS, New Mexico MPS 45337
2001 12 17.38658 06 58 33.43 +20 30 02.1 19.3   704 – Lincoln Laboratory ETS, New Mexico MPS 45337
2001 12 17.40179 06 58 32.61 +20 30 03.7 19.5   704 – Lincoln Laboratory ETS, New Mexico MPS 45337
2001 12 17.41702 06 58 31.79 +20 30 06.0 19.3   704 – Lincoln Laboratory ETS, New Mexico MPS 45337
2001 12 17.43223 06 58 30.96 +20 30 06.9 19.7   704 – Lincoln Laboratory ETS, New Mexico MPS 45338
2002 01 09.27507 06 36 00.93 +21 30 19.6 19.3   704 – Lincoln Laboratory ETS, New Mexico MPS 46944
2002 01 09.29019 06 36 00.02 +21 30 21.1 19.7   704 – Lincoln Laboratory ETS, New Mexico MPS 46944
2002 01 09.30531 06 35 59.10 +21 30 24.1 19.6   704 – Lincoln Laboratory ETS, New Mexico MPS 46944
2002 01 15.23954 06 30 27.13 +21 45 46.9 18.8   704 – Lincoln Laboratory ETS, New Mexico MPS 46944
2002 01 15.25471 06 30 26.28 +21 45 49.3 18.8   704 – Lincoln Laboratory ETS, New Mexico MPS 46944
2002 01 15.26989 06 30 25.45 +21 45 52.0 19.1   704 – Lincoln Laboratory ETS, New Mexico MPS 46944
2002 01 15.28506 06 30 24.80 +21 45 53.7 19.4   704 – Lincoln Laboratory ETS, New Mexico MPS 46944
2003 04 25.40327 15 34 13.05 -14 36 27.4 20.9 V 691 – Steward Observatory, Kitt Peak-Spacewatch MPS 202302
2003 04 25.43111 15 34 11.67 -14 36 21.8 21.3 V 691 – Steward Observatory, Kitt Peak-Spacewatch MPS 202302
2003 04 25.46052 15 34 10.25 -14 36 16.1 21.3 V 691 – Steward Observatory, Kitt Peak-Spacewatch MPS 202302
2005 11 22.38703 06 03 47.08 +20 00 31.9 20.1 V 691 – Steward Observatory, Kitt Peak-Spacewatch MPS 155795
2005 11 22.40451 06 03 46.43 +20 00 32.0 19.9 V 691 – Steward Observatory, Kitt Peak-Spacewatch MPS 155795
2005 11 22.42205 06 03 45.79 +20 00 32.2 20.0 V 691 – Steward Observatory, Kitt Peak-Spacewatch MPS 155795
2005 11 29.32489 05 59 04.00 +20 03 09.4 20.2 C 704 – Lincoln Laboratory ETS, New Mexico MPS 294380
2005 11 29.35140 05 59 02.65 +20 03 08.6 19.1 C 704 – Lincoln Laboratory ETS, New Mexico MPS 294380
2005 11 29.36453 05 59 02.23 +20 03 10.4 19.5 C 704 – Lincoln Laboratory ETS, New Mexico MPS 294380
2005 11 29.37760 05 59 01.33 +20 03 10.5 19.2 C 704 – Lincoln Laboratory ETS, New Mexico MPS 294380
2005 12 09.33132 05 50 10.96 +20 09 26.4 19.1   704 – Lincoln Laboratory ETS, New Mexico MPS 155235
2005 12 09.34465 05 50 10.15 +20 09 27.4 19.6   704 – Lincoln Laboratory ETS, New Mexico MPS 155235
2005 12 09.35780 05 50 09.43 +20 09 27.3 19.2   704 – Lincoln Laboratory ETS, New Mexico MPS 155235
2005 12 09.38398 05 50 07.77 +20 09 29.0 19.5   704 – Lincoln Laboratory ETS, New Mexico MPS 155235
2005 12 10.20514 05 49 19.74 +20 10 06.3 19.6   704 – Lincoln Laboratory ETS, New Mexico MPS 155235
2005 12 10.21813 05 49 18.99 +20 10 06.5 19.3   704 – Lincoln Laboratory ETS, New Mexico MPS 155235
2005 12 10.23110 05 49 18.21 +20 10 08.0 19.7   704 – Lincoln Laboratory ETS, New Mexico MPS 155235
2005 12 10.24387 05 49 17.37 +20 10 08.3 20.2   704 – Lincoln Laboratory ETS, New Mexico MPS 155235
2005 12 30.27135 05 29 07.64 +20 29 24.3 19.8   704 – Lincoln Laboratory ETS, New Mexico MPS 157662
2005 12 30.28484 05 29 06.85 +20 29 26.3 20.0   704 – Lincoln Laboratory ETS, New Mexico MPS 157662
2005 12 30.29826 05 29 06.08 +20 29 25.9 19.7   704 – Lincoln Laboratory ETS, New Mexico MPS 157662
2005 12 30.31131 05 29 05.36 +20 29 26.2 20.2   704 – Lincoln Laboratory ETS, New Mexico MPS 157662
2005 12 30.32459 05 29 04.59 +20 29 27.7 20.1   704 – Lincoln Laboratory ETS, New Mexico MPS 157662
2006 01 23.18280 05 14 41.78 +21 04 33.6 19.3 V G96 – Mt. Lemmon Survey MPS 160309
2006 01 23.19043 05 14 41.64 +21 04 34.5 19.3 V G96 – Mt. Lemmon Survey MPS 160309
2006 01 23.19803 05 14 41.53 +21 04 35.5 19.1 V G96 – Mt. Lemmon Survey MPS 160309
2006 02 24.19488 05 24 58.14 +22 13 43.1 20.0 V G96 – Mt. Lemmon Survey MPS 163676
2006 02 24.20117 05 24 58.46 +22 13 43.6 19.6 V G96 – Mt. Lemmon Survey MPS 163676
2006 02 24.20939 05 24 58.82 +22 13 45.2 20.0 V G96 – Mt. Lemmon Survey MPS 163676
2006 02 24.21556 05 24 59.11 +22 13 45.9 20.1 V G96 – Mt. Lemmon Survey MPS 163676
2007 04 20.29581 14 54 24.08 -11 43 16.1 21.0 V 691 – Steward Observatory, Kitt Peak-Spacewatch MPS 206824
2007 04 20.31494 14 54 23.08 -11 43 11.1 20.6 V 691 – Steward Observatory, Kitt Peak-Spacewatch MPS 206824
2007 04 20.33457 14 54 22.07 -11 43 06.8 20.7 V 691 – Steward Observatory, Kitt Peak-Spacewatch MPS 206824
2007 04 24.26016 14 50 58.62 -11 26 42.5 20.8 V 691 – Steward Observatory, Kitt Peak-Spacewatch MPS 208000
2007 04 24.27785 14 50 57.65 -11 26 38.1 20.5 V 691 – Steward Observatory, Kitt Peak-Spacewatch MPS 208000
2007 04 24.29555 14 50 56.67 -11 26 33.6 20.8 V 691 – Steward Observatory, Kitt Peak-Spacewatch MPS 208000
2007 04 28.27001 14 47 22.75 -11 09 56.5 20.1 V 691 – Steward Observatory, Kitt Peak-Spacewatch MPS 208000
2007 04 28.28765 14 47 21.74 -11 09 52.3 20.5 V 691 – Steward Observatory, Kitt Peak-Spacewatch MPS 208000
2007 04 28.30531 14 47 20.73 -11 09 47.9 20.3 V 691 – Steward Observatory, Kitt Peak-Spacewatch MPS 208000
2007 05 16.28554 14 31 19.77 -10 02 18.6 20.3 V G96 – Mt. Lemmon Survey MPS 208826
2007 05 16.29160 14 31 19.48 -10 02 17.5 20.3 V G96 – Mt. Lemmon Survey MPS 208826
2007 05 16.29774 14 31 19.16 -10 02 16.4 20.4 V G96 – Mt. Lemmon Survey MPS 208826
2007 05 16.30387 14 31 18.84 -10 02 15.3 20.2 V G96 – Mt. Lemmon Survey MPS 208826
2008 06 30.39772 21 26 24.72 -15 25 28.9   691 – Steward Observatory, Kitt Peak-Spacewatch MPS 252018
2008 06 30.41279 21 26 24.37 -15 25 32.2   691 – Steward Observatory, Kitt Peak-Spacewatch MPS 252018
2008 06 30.42786 21 26 24.02 -15 25 34.4   691 – Steward Observatory, Kitt Peak-Spacewatch MPS 252018
2009 11 18.31550 04 51 40.32 +18 14 16.1 19.7   704 – Lincoln Laboratory ETS, New Mexico MPS 303203
2009 11 18.32783 04 51 39.73 +18 14 15.0 20.0   704 – Lincoln Laboratory ETS, New Mexico MPS 303203
2009 11 18.34017 04 51 39.06 +18 14 13.7 19.7   704 – Lincoln Laboratory ETS, New Mexico MPS 303203
2009 11 18.35290 04 51 38.38 +18 14 12.7 19.8   704 – Lincoln Laboratory ETS, New Mexico MPS 303203
2009 11 18.36525 04 51 37.77 +18 14 12.0 20.0   704 – Lincoln Laboratory ETS, New Mexico MPS 303203
2009 11 20.24443 04 49 59.34 +18 11 51.8 19.3   704 – Lincoln Laboratory ETS, New Mexico MPS 304773
2009 11 20.25675 04 49 58.61 +18 11 48.9 19.8   704 – Lincoln Laboratory ETS, New Mexico MPS 304773
2009 11 20.26913 04 49 57.91 +18 11 49.3 20.0   704 – Lincoln Laboratory ETS, New Mexico MPS 304773
2009 11 20.28143 04 49 57.29 +18 11 48.3 19.4   704 – Lincoln Laboratory ETS, New Mexico MPS 304773
2009 11 20.29373 04 49 56.54 +18 11 47.7 19.8   704 – Lincoln Laboratory ETS, New Mexico MPS 304773
2009 11 20.99852 04 49 18.36 +18 10 53.1 20.0 V A50 – Andrushivka Astronomical Observatory MPS 304774
2009 11 21.01628 04 49 17.33 +18 10 51.2 19.2 V A50 – Andrushivka Astronomical Observatory MPS 304774
2009 12 11.29594 04 29 13.02 +17 50 05.1 18.7 V 703 – Catalina Sky Survey MPS 308535
2009 12 11.30315 04 29 12.62 +17 50 04.9 18.6 V 703 – Catalina Sky Survey MPS 308535
2009 12 11.31038 04 29 12.15 +17 50 04.0 18.9 V 703 – Catalina Sky Survey MPS 308535
2009 12 11.31762 04 29 11.76 +17 50 04.0 18.9 V 703 – Catalina Sky Survey MPS 308535
2009 12 12.26201 04 28 17.06 +17 49 29.4 18.9   704 – Lincoln Laboratory ETS, New Mexico MPS 308535
2009 12 12.27480 04 28 16.25 +17 49 28.7 19.4   704 – Lincoln Laboratory ETS, New Mexico MPS 308535
2009 12 12.28750 04 28 15.47 +17 49 27.9 19.7   704 – Lincoln Laboratory ETS, New Mexico MPS 308535
